Погода в Лехинче

Ирландия     52°55′54″N   9°20′25″W
темп.,
°C
ветер,
м/с
пор.,
м/с
влажн.,
%
обл.,
%
осадки,
мм/ч
давл.,
гПа
погр.,
м
26 июля, пн
пн2601:00+15св119256 0.8 101316
04:00+15в0094100 0.0 101228
07:00+16з1293100 0.0 1012153
10:00+17сз2386100 0.0 1011406
13:00+19з5580100 0.4 1011668
16:00+17зсз6688100 0.9 1010556
19:00+15сз4792100 3.8 1010475
22:00+15сз7108991 0.3 1010622
27 июля, вт
вт2701:00+14сз71091100 0.8 1010606
04:00+14сз81092100 0.3 1009620
07:00+14сз7109098 1.9 1009626
10:00+14сз6984100 0.6 1010660
13:00+17зсз776461 0.6 10101177
16:00+17зсз88665 0.0 10101058
19:00+16зсз68738 0.0 1009731
22:00+14з69794 0.4 1009531
28 июля, ср
ср2801:00+13з6108376 1.0 1008462
04:00+13з698464 2.6 1005427
07:00+12зсз710869 7.6 1005503
10:00+14зсз9117795 3.1 10051254
13:00+14зсз9107446 4.9 10051377
16:00+15зсз10127018 1.2 10061504
19:00+15зсз9117075 1.6 10071450
22:00+14зсз7106582 0.2 1008958
29 июля, чт
чт2901:00+13сз7107621 0.4 1009555
04:00+13зсз7107733 0.2 1009569
07:00+14зсз797096 0.3 1009703
10:00+14зсз686842 0.1 10091028
13:00+16з786654 0.3 10091309
16:00+14зсз5792100 1.9 1009551
19:00+14зсз5884100 4.5 1009445
22:00+14зсз5889100 0.6 1009371
30 июля, пт
пт3001:00+14зсз6890100 1.5 1009471
04:00+14зсз5891100 1.0 1008441
07:00+14зсз5791100 2.4 1008419
10:00+15зсз4691100 0.9 1008470
13:00+17сз4480100 1.1 1009697
16:00+18зсз447369 0.2 1010841
19:00+18с367313 0.6 1011742
22:00+15ссв349020 0.3 101393